When you browse on this site, cookies collect data to enhance your experience and personalize the content and advertising you see.
Visit our Privacy Policy to learn more. By continuing to use the site, you agree to this use of cookies and data.
EN

Hourly Weather Roznov pod Radhostem

Today, 4 July, Saturday

Time Temperature Precipitation Wind Pressure Humidity
00:00 +14°C° 0 mm 1 mps 728 mmHg 93%
01:00 +14°C° 0 mm 1 mps 729 mmHg 94%
02:00 +14°C° 0 mm 1 mps 728 mmHg 94%
03:00 +13°C° 0 mm 1 mps 728 mmHg 93%
04:00 +13°C° 0 mm 1 mps 728 mmHg 93%
05:00 +15°C° 0 mm 1 mps 728 mmHg 89%
06:00 +18°C° 0 mm 1 mps 729 mmHg 84%
07:00 +19°C° 0 mm 1 mps 729 mmHg 79%
08:00 +21°C° 0 mm 1 mps 729 mmHg 70%
09:00 +22°C° 0 mm 1 mps 729 mmHg 61%
10:00 +24°C° 0 mm 1 mps 730 mmHg 52%
11:00 +24°C° 0 mm 1 mps 729 mmHg 50%
12:00 +25°C° 0 mm 2 mps 729 mmHg 48%
13:00 +26°C° 0 mm 2 mps 729 mmHg 46%
14:00 +25°C° 0 mm 2 mps 729 mmHg 48%
15:00 +25°C° 0 mm 2 mps 728 mmHg 49%
16:00 +25°C° 0 mm 2 mps 728 mmHg 51%
17:00 +24°C° 0 mm 2 mps 728 mmHg 59%
18:00 +21°C° 0 mm 2 mps 728 mmHg 67%
19:00 +21°C° 0 mm 1 mps 728 mmHg 76%
20:00 +20°C° 0 mm 1 mps 728 mmHg 79%
21:00 +18°C° 0 mm 1 mps 728 mmHg 82%
22:00 +16°C° 0 mm 1 mps 728 mmHg 85%
23:00 +16°C° 0 mm 1 mps 728 mmHg 85%

Tomorrow, 5 July, Sunday

Time Temperature Precipitation Wind Pressure Humidity
00:00 +15°C° 0 mm 1 mps 728 mmHg 85%
01:00 +15°C° 0 mm 1 mps 728 mmHg 86%
02:00 +15°C° 0 mm 1 mps 728 mmHg 86%
03:00 +15°C° 0 mm 1 mps 727 mmHg 87%
04:00 +14°C° 0 mm 1 mps 727 mmHg 88%
05:00 +16°C° 0 mm 1 mps 727 mmHg 82%
06:00 +19°C° 0 mm 1 mps 728 mmHg 77%
07:00 +21°C° 0 mm 1 mps 728 mmHg 71%
08:00 +23°C° 0 mm 2 mps 728 mmHg 66%
09:00 +24°C° 0 mm 2 mps 728 mmHg 61%
10:00 +25°C° 0 mm 3 mps 728 mmHg 56%
11:00 +26°C° 0 mm 3 mps 728 mmHg 56%
12:00 +26°C° 0 mm 3 mps 728 mmHg 56%
13:00 +27°C° 0 mm 3 mps 727 mmHg 56%
14:00 +27°C° 0 mm 3 mps 727 mmHg 57%
15:00 +27°C° 0 mm 3 mps 727 mmHg 57%
16:00 +27°C° 0 mm 3 mps 726 mmHg 58%
17:00 +26°C° 0 mm 2 mps 726 mmHg 65%
18:00 +25°C° 0 mm 2 mps 726 mmHg 72%
19:00 +24°C° 0 mm 1 mps 726 mmHg 78%
20:00 +22°C° 0 mm 1 mps 726 mmHg 81%
21:00 +21°C° 0 mm 1 mps 726 mmHg 84%
22:00 +20°C° 0 mm 1 mps 726 mmHg 86%
23:00 +19°C° 0 mm 1 mps 726 mmHg 88%

Day after tomorrow, 6 July, Monday

Time Temperature Precipitation Wind Pressure Humidity
00:00 +19°C° 0 mm 1 mps 725 mmHg 90%
01:00 +19°C° 0 mm 1 mps 725 mmHg 92%
02:00 +18°C° 0 mm 1 mps 725 mmHg 92%
03:00 +18°C° 0 mm 1 mps 725 mmHg 93%
04:00 +18°C° 0 mm 1 mps 725 mmHg 93%
05:00 +19°C° 0 mm 1 mps 725 mmHg 88%
06:00 +19°C° 0 mm 2 mps 725 mmHg 83%
07:00 +20°C° 0 mm 2 mps 725 mmHg 79%
08:00 +23°C° 0 mm 2 mps 725 mmHg 73%
09:00 +24°C° 0 mm 3 mps 725 mmHg 67%
10:00 +25°C° 0 mm 3 mps 725 mmHg 61%
11:00 +26°C° 0.1 mm 4 mps 724 mmHg 59%
12:00 +26°C° 0.1 mm 4 mps 724 mmHg 58%
13:00 +27°C° 0.1 mm 4 mps 724 mmHg 56%
14:00 +26°C° 0.1 mm 4 mps 724 mmHg 59%
15:00 +25°C° 0.1 mm 4 mps 724 mmHg 61%
16:00 +23°C° 0.1 mm 4 mps 723 mmHg 63%
17:00 +22°C° 0 mm 3 mps 724 mmHg 68%
18:00 +21°C° 0 mm 3 mps 724 mmHg 73%
19:00 +19°C° 0 mm 2 mps 724 mmHg 77%
20:00 +18°C° 0.6 mm 2 mps 724 mmHg 82%
21:00 +16°C° 0.6 mm 2 mps 725 mmHg 86%
22:00 +14°C° 0.6 mm 2 mps 725 mmHg 90%
23:00 +14°C° 1.5 mm 2 mps 725 mmHg 92%

7 July, Tuesday

Time Temperature Precipitation Wind Pressure Humidity
00:00 +13°C° 1.5 mm 1 mps 726 mmHg 94%
01:00 +13°C° 1.5 mm 1 mps 726 mmHg 96%
02:00 +12°C° 1 mm 1 mps 726 mmHg 96%
03:00 +12°C° 1 mm 1 mps 726 mmHg 95%
04:00 +12°C° 1 mm 1 mps 726 mmHg 94%
05:00 +12°C° 0.1 mm 1 mps 727 mmHg 92%
06:00 +13°C° 0.1 mm 1 mps 727 mmHg 89%
07:00 +13°C° 0.1 mm 1 mps 727 mmHg 87%
08:00 +14°C° 0.4 mm 2 mps 727 mmHg 85%
09:00 +15°C° 0.4 mm 2 mps 727 mmHg 82%
10:00 +16°C° 0.4 mm 3 mps 728 mmHg 80%
11:00 +15°C° 0.4 mm 4 mps 728 mmHg 75%
12:00 +17°C° 0.4 mm 4 mps 727 mmHg 70%
13:00 +16°C° 0.4 mm 5 mps 727 mmHg 65%
14:00 +16°C° 0.1 mm 5 mps 728 mmHg 64%
15:00 +17°C° 0.1 mm 4 mps 728 mmHg 63%
16:00 +17°C° 0.1 mm 4 mps 728 mmHg 61%
17:00 +16°C° 0 mm 3 mps 728 mmHg 66%
18:00 +14°C° 0 mm 3 mps 728 mmHg 70%
19:00 +14°C° 0 mm 2 mps 728 mmHg 74%
20:00 +13°C° 0 mm 2 mps 729 mmHg 78%
21:00 +11°C° 0 mm 1 mps 729 mmHg 83%
22:00 +10°C° 0 mm 1 mps 729 mmHg 87%
23:00 +10°C° 0 mm 1 mps 729 mmHg 87%

8 July, Wednesday

Time Temperature Precipitation Wind Pressure Humidity
00:00 +9°C° 0 mm 1 mps 729 mmHg 87%
01:00 +8°C° 0 mm 0 mps 729 mmHg 87%
02:00 +8°C° 0 mm 0 mps 729 mmHg 86%
03:00 +8°C° 0 mm 0 mps 729 mmHg 86%
04:00 +8°C° 0 mm 1 mps 729 mmHg 85%
05:00 +10°C° 0 mm 1 mps 729 mmHg 79%
06:00 +13°C° 0 mm 1 mps 730 mmHg 72%
07:00 +15°C° 0 mm 1 mps 730 mmHg 66%
08:00 +16°C° 0 mm 1 mps 730 mmHg 61%
09:00 +17°C° 0 mm 2 mps 730 mmHg 56%
10:00 +19°C° 0 mm 2 mps 730 mmHg 51%
11:00 +19°C° 0 mm 2 mps 730 mmHg 50%
12:00 +20°C° 0 mm 2 mps 730 mmHg 48%
13:00 +21°C° 0 mm 3 mps 730 mmHg 46%
14:00 +21°C° 0 mm 3 mps 729 mmHg 48%
15:00 +21°C° 0 mm 3 mps 729 mmHg 50%
16:00 +21°C° 0 mm 3 mps 729 mmHg 52%
17:00 +19°C° 0 mm 2 mps 729 mmHg 60%
18:00 +18°C° 0 mm 2 mps 729 mmHg 68%
19:00 +18°C° 0 mm 1 mps 729 mmHg 76%
20:00 +16°C° 0 mm 1 mps 729 mmHg 78%
21:00 +15°C° 0 mm 1 mps 729 mmHg 80%
22:00 +13°C° 0 mm 1 mps 729 mmHg 83%
23:00 +13°C° 0 mm 1 mps 729 mmHg 83%

9 July, Thursday

Time Temperature Precipitation Wind Pressure Humidity
00:00 +13°C° 0 mm 1 mps 729 mmHg 83%
01:00 +13°C° 0 mm 1 mps 728 mmHg 83%
02:00 +12°C° 0 mm 1 mps 728 mmHg 84%
03:00 +12°C° 0 mm 1 mps 728 mmHg 84%
04:00 +12°C° 0 mm 1 mps 728 mmHg 85%
05:00 +14°C° 0 mm 1 mps 728 mmHg 79%
06:00 +16°C° 0 mm 2 mps 728 mmHg 74%
07:00 +17°C° 0 mm 2 mps 728 mmHg 68%
08:00 +19°C° 0 mm 2 mps 728 mmHg 64%
09:00 +20°C° 0 mm 3 mps 729 mmHg 60%
10:00 +22°C° 0 mm 3 mps 729 mmHg 56%
11:00 +24°C° 0 mm 3 mps 728 mmHg 55%
12:00 +23°C° 0 mm 4 mps 728 mmHg 54%
13:00 +25°C° 0 mm 4 mps 728 mmHg 53%
14:00 +25°C° 0 mm 4 mps 728 mmHg 54%
15:00 +25°C° 0 mm 3 mps 728 mmHg 55%
16:00 +25°C° 0 mm 3 mps 727 mmHg 56%
17:00 +24°C° 0 mm 3 mps 727 mmHg 63%
18:00 +21°C° 0 mm 2 mps 727 mmHg 69%
19:00 +20°C° 0 mm 2 mps 727 mmHg 76%
20:00 +20°C° 0 mm 1 mps 727 mmHg 80%
21:00 +18°C° 0 mm 1 mps 727 mmHg 83%
22:00 +16°C° 0 mm 1 mps 727 mmHg 86%
23:00 +16°C° 0 mm 1 mps 727 mmHg 87%
Show more